International Virtual Aviation Organisation

Russian Federation and Kazakhstan MCD

 

Карточка аэропорта UASS

Внимание!
Информация на этой странице в стадии наполнения.
Если вы не увидели какой-то информации, или заметили неточность - пожалуйста сообщите нам!
Спасибо!
Команда RU-STAFF
Название аэропортаСемей
Название аэропорта (англ.)Semey
Превышение764 ft. (232.9 m.)
Координаты50°21.018', 80°13.776'
Высота перехода1133
Эшелон переходаFL50
Коды ответчика7254-7257, 0674-0677
Зона ОрВДАлматы РПИ (UAAA)
Данные METARUASS 080230Z 21006MPS 9999 SCT040 M01/M05 Q1027 R26/79//32 NOSIG RMK QFE752/1002
Проноз погоды (TAF)NODATA
NOTAMshow/hide NOTAM
AWOS   TABLE

Информация о ВПП


Диспетчерские позиции




Спутниковое изображение